Time,TemperatureF,DewpointF,PressureIn,WindDirection,WindDirectionDegrees,WindSpeedMPH,WindSpeedGustMPH,Humidity,HourlyPrecipIn,Conditions,Clouds,dailyrainin,SoftwareType,DateUTC
2013-01-08 09:02:00,31.0,28.0,30.22,NW,323,0.0,0.0,88,0.00,,,0.00,,2013-01-08 15:02:00,
2013-01-08 09:12:00,31.0,28.0,30.22,NW,323,0.0,0.0,88,0.00,,,0.00,,2013-01-08 15:12:00,
2013-01-08 09:22:00,31.0,28.0,30.22,NW,323,0.0,0.0,87,0.00,,,0.00,,2013-01-08 15:22:00,
2013-01-08 09:33:00,32.0,29.0,30.22,NW,323,0.0,0.0,87,0.00,,,0.00,,2013-01-08 15:33:00,
2013-01-08 09:43:00,32.0,29.0,30.22,NW,323,0.0,0.0,87,0.00,,,0.00,,2013-01-08 15:43:00,
2013-01-08 09:53:00,33.0,29.0,30.22,NNW,328,0.0,0.0,85,0.00,,,0.00,,2013-01-08 15:53:00,
2013-01-08 10:03:00,34.0,29.0,30.22,NNW,330,0.0,0.0,82,0.00,,,0.00,,2013-01-08 16:03:00,
2013-01-08 10:12:00,34.0,29.0,30.22,NNW,330,0.0,0.0,82,0.00,,,0.00,,2013-01-08 16:12:00,
2013-01-08 10:22:00,36.0,30.0,30.22,NW,323,0.0,0.0,79,0.00,,,0.00,,2013-01-08 16:22:00,
2013-01-08 10:33:00,37.0,31.0,30.21,NW,323,0.0,0.0,78,0.00,,,0.00,,2013-01-08 16:33:00,
2013-01-08 10:42:00,37.0,31.0,30.21,NW,323,0.0,0.0,78,0.00,,,0.00,,2013-01-08 16:42:00,
2013-01-08 10:52:00,37.0,30.0,30.21,NNW,332,0.0,0.0,76,0.00,,,0.00,,2013-01-08 16:52:00,
2013-01-08 11:03:00,38.0,31.0,30.20,NW,320,0.0,0.0,76,0.00,,,0.00,,2013-01-08 17:03:00,
2013-01-08 11:13:00,38.0,31.0,30.20,NW,320,0.0,0.0,76,0.00,,,0.00,,2013-01-08 17:13:00,
2013-01-08 11:23:00,39.0,31.0,30.19,NW,321,0.0,0.0,74,0.00,,,0.00,,2013-01-08 17:23:00,
2013-01-08 11:33:00,40.0,32.0,30.18,NNW,335,0.0,0.0,72,0.00,,,0.00,,2013-01-08 17:33:00,
2013-01-08 11:43:00,40.0,32.0,30.18,NNW,335,0.0,0.0,72,0.00,,,0.00,,2013-01-08 17:43:00,
2013-01-08 11:53:00,40.0,31.0,30.17,NW,323,0.0,0.0,71,0.00,,,0.00,,2013-01-08 17:53:00,
2013-01-08 12:03:00,41.0,32.0,30.17,NW,323,0.0,0.0,70,0.00,,,0.00,,2013-01-08 18:03:00,
2013-01-08 12:13:00,41.0,32.0,30.17,NW,323,0.0,0.0,70,0.00,,,0.00,,2013-01-08 18:13:00,
2013-01-08 12:23:00,41.0,32.0,30.16,NW,320,0.0,0.0,71,0.00,,,0.00,,2013-01-08 18:23:00,
2013-01-08 12:33:00,42.0,32.0,30.15,NNW,333,0.0,0.0,68,0.00,,,0.00,,2013-01-08 18:33:00,
2013-01-08 12:43:00,42.0,32.0,30.15,NNW,333,0.0,0.0,68,0.00,,,0.00,,2013-01-08 18:43:00,
2013-01-08 12:53:00,43.0,32.0,30.15,NW,321,0.0,0.0,66,0.00,,,0.00,,2013-01-08 18:53:00,
2013-01-08 13:03:00,44.0,33.0,30.15,NW,325,0.0,0.0,65,0.00,,,0.00,,2013-01-08 19:03:00,
2013-01-08 13:12:00,44.0,33.0,30.15,NW,325,0.0,0.0,65,0.00,,,0.00,,2013-01-08 19:12:00,
2013-01-08 13:22:00,44.0,33.0,30.14,NW,323,0.0,0.0,64,0.00,,,0.00,,2013-01-08 19:22:00,
2013-01-08 13:32:00,45.0,33.0,30.13,NW,321,0.0,0.0,62,0.00,,,0.00,,2013-01-08 19:32:00,
2013-01-08 13:42:00,45.0,33.0,30.13,NW,321,0.0,0.0,62,0.00,,,0.00,,2013-01-08 19:42:00,
2013-01-08 13:53:00,45.0,32.0,30.12,NNW,330,0.0,0.0,60,0.00,,,0.00,,2013-01-08 19:53:00,
2013-01-08 14:03:00,46.0,32.0,30.12,NNW,340,0.0,0.0,58,0.00,,,0.00,,2013-01-08 20:03:00,
2013-01-08 14:12:00,46.0,32.0,30.12,NNW,340,0.0,0.0,58,0.00,,,0.00,,2013-01-08 20:12:00,
2013-01-08 14:23:00,47.0,32.0,30.11,NNW,335,0.0,0.0,55,0.00,,,0.00,,2013-01-08 20:23:00,
2013-01-08 14:33:00,47.0,31.0,30.11,NNW,330,0.0,0.0,54,0.00,,,0.00,,2013-01-08 20:33:00,
2013-01-08 14:43:00,47.0,31.0,30.11,NNW,330,0.0,0.0,54,0.00,,,0.00,,2013-01-08 20:43:00,
2013-01-08 14:53:00,48.0,32.0,30.10,NNW,336,0.0,0.0,54,0.00,,,0.00,,2013-01-08 20:53:00,
2013-01-08 15:03:00,48.0,32.0,30.10,NW,321,0.0,0.0,53,0.00,,,0.00,,2013-01-08 21:03:00,
2013-01-08 15:12:00,48.0,32.0,30.10,NW,321,0.0,0.0,53,0.00,,,0.00,,2013-01-08 21:12:00,
2013-01-08 15:23:00,49.0,33.0,30.10,NNW,332,0.0,0.0,53,0.00,,,0.00,,2013-01-08 21:23:00,
2013-01-08 15:33:00,49.0,32.0,30.09,NNW,335,0.0,0.0,51,0.00,,,0.00,,2013-01-08 21:33:00,
2013-01-08 15:43:00,49.0,32.0,30.09,NNW,335,0.0,0.0,51,0.00,,,0.00,,2013-01-08 21:43:00,
2013-01-08 15:53:00,49.0,35.0,30.09,NNW,332,0.0,0.0,59,0.00,,,0.00,,2013-01-08 21:53:00,
2013-01-08 16:03:00,48.0,36.0,30.10,NW,319,0.0,0.0,62,0.00,,,0.00,,2013-01-08 22:03:00,
2013-01-08 16:12:00,48.0,36.0,30.10,NW,319,0.0,0.0,62,0.00,,,0.00,,2013-01-08 22:12:00,
2013-01-08 16:23:00,48.0,35.0,30.10,NW,322,0.0,0.0,61,0.00,,,0.00,,2013-01-08 22:23:00,
2013-01-08 16:33:00,48.0,35.0,30.10,NW,322,0.0,0.0,61,0.00,,,0.00,,2013-01-08 22:33:00,
2013-01-08 16:43:00,48.0,35.0,30.10,NW,322,0.0,0.0,61,0.00,,,0.00,,2013-01-08 22:43:00,
2013-01-08 16:52:00,47.0,36.0,30.10,NW,319,0.0,0.0,65,0.00,,,0.00,,2013-01-08 22:52:00,
2013-01-08 17:02:00,46.0,36.0,30.10,NW,319,0.0,0.0,67,0.00,,,0.00,,2013-01-08 23:02:00,
2013-01-08 17:12:00,46.0,36.0,30.10,NW,319,0.0,0.0,67,0.00,,,0.00,,2013-01-08 23:12:00,
2013-01-08 17:22:00,46.0,36.0,30.11,NW,319,0.0,0.0,69,0.00,,,0.00,,2013-01-08 23:22:00,
2013-01-08 17:32:00,44.0,35.0,30.11,NW,321,0.0,0.0,71,0.00,,,0.00,,2013-01-08 23:32:00,
2013-01-08 17:43:00,44.0,35.0,30.11,NW,321,0.0,0.0,71,0.00,,,0.00,,2013-01-08 23:43:00,